Location: Newark
(44.9333°N, 0.5667°E)
Time: 07:43:51
(UTC+00:00)

N. Korean satellite - Pass Details

Date: 16 December 2019
Orbit: 454 x 507 km, 97.2° (Epoch: 27 January)

Event Time Altitude Azimuth Distance (km) Brightness Sun altitude
Rises 05:34:44 0° 17° (NNE) 2,526 10.2 -19.4°
Reaches altitude 10° 05:36:52 10° 22° (NNE) 1,635 9.3 -19.0°
Maximum altitude 05:40:16 50° 99° (E) 600 7.4 -18.4°
Drops below altitude 10° 05:43:37 10° 176° (S) 1,599 9.4 -17.8°
Sets 05:45:40 0° 182° (S) 2,462 10.3 -17.5°
